SAS45W EKCH-EGBB

Flight info

Callsign SAS45W
Flight time N/A
Altitude 38000
Route LANGO DCT ALASA DCT NOGRO M40 SABER L980 LAM L610 HEMEL
Aircraft A320/M-SDE3FGHIRWY/LB1

Departure

Time 2026-04-23 15:59
Airport Copenhagen Kastrup Airport (EKCH)

Arrival

Time N/A
Airport Birmingham Airport (EGBB)
Time Latitude Longitude Altitude Speed Heading
2026-04-23 15:27 55.62724 12.65325 27 ft 0 kts 17°
2026-04-23 15:48 55.62711 12.65318 25 ft 4 kts 15°
2026-04-23 15:48 55.62685 12.65308 25 ft 4 kts
2026-04-23 15:48 55.62663 12.65308 25 ft 4 kts 354°
2026-04-23 15:49 55.62637 12.65316 27 ft 4 kts 350°
2026-04-23 15:49 55.62616 12.65319 25 ft 4 kts 359°
2026-04-23 15:49 55.62603 12.65320 25 ft 0 kts 359°
2026-04-23 15:52 55.62619 12.65319 24 ft 8 kts 358°
2026-04-23 15:52 55.62654 12.65245 24 ft 10 kts 265°
2026-04-23 15:52 55.62596 12.65181 24 ft 12 kts 179°
2026-04-23 15:52 55.62505 12.65183 24 ft 14 kts 179°
2026-04-23 15:53 55.62402 12.65200 24 ft 16 kts 174°
2026-04-23 15:53 55.62305 12.65199 24 ft 11 kts 186°
2026-04-23 15:53 55.62251 12.65197 24 ft 12 kts 184°
2026-04-23 15:53 55.62170 12.65134 24 ft 14 kts 214°
2026-04-23 15:54 55.62083 12.65032 24 ft 16 kts 213°
2026-04-23 15:54 55.61985 12.64920 24 ft 17 kts 213°
2026-04-23 15:54 55.61879 12.64799 25 ft 19 kts 213°
2026-04-23 15:54 55.61766 12.64667 26 ft 19 kts 213°
2026-04-23 15:55 55.61646 12.64529 24 ft 22 kts 213°
2026-04-23 15:55 55.61511 12.64376 25 ft 24 kts 213°
2026-04-23 15:55 55.61386 12.64233 25 ft 20 kts 212°
2026-04-23 15:55 55.61265 12.64091 24 ft 21 kts 214°
2026-04-23 15:56 55.61141 12.63942 24 ft 22 kts 213°
2026-04-23 15:56 55.61017 12.63805 25 ft 21 kts 213°
2026-04-23 15:56 55.60890 12.63660 24 ft 22 kts 213°
2026-04-23 15:56 55.60757 12.63509 24 ft 23 kts 213°
2026-04-23 15:57 55.60646 12.63373 24 ft 19 kts 219°
2026-04-23 15:57 55.60551 12.63231 24 ft 11 kts 214°
2026-04-23 15:57 55.60480 12.63250 24 ft 12 kts 138°
2026-04-23 15:57 55.60420 12.63368 24 ft 13 kts 126°
2026-04-23 15:58 55.60442 12.63505 24 ft 2 kts 41°
2026-04-23 15:58 55.60468 12.63545 24 ft 27 kts 41°
2026-04-23 15:58 55.60800 12.64058 26 ft 97 kts 41°
2026-04-23 15:59 55.61450 12.65061 26 ft 148 kts 40°
2026-04-23 15:59 55.62273 12.66322 435 ft 157 kts 35°
2026-04-23 15:59 55.63103 12.67595 1075 ft 158 kts 34°
2026-04-23 15:59 55.63960 12.68926 1515 ft 175 kts 36°
2026-04-23 16:00 55.64937 12.70438 1786 ft 201 kts 35°
2026-04-23 16:00 55.66082 12.72156 2083 ft 229 kts 34°
2026-04-23 16:00 55.67376 12.74060 2515 ft 254 kts 36°
2026-04-23 16:00 55.68733 12.76089 3507 ft 255 kts 38°
2026-04-23 16:01 55.69771 12.78708 4456 ft 268 kts 63°
2026-04-23 16:01 55.70078 12.82016 5347 ft 281 kts 90°
2026-04-23 16:01 55.69506 12.85371 6265 ft 292 kts 118°
2026-04-23 16:01 55.68093 12.87993 7097 ft 301 kts 148°
2026-04-23 16:02 55.66157 12.89482 7910 ft 306 kts 160°
2026-04-23 16:02 55.64108 12.90600 8707 ft 311 kts 172°
2026-04-23 16:02 55.61940 12.90787 9467 ft 314 kts 188°
2026-04-23 16:02 55.59804 12.89963 10228 ft 315 kts 205°
2026-04-23 16:03 55.57813 12.88190 10574 ft 329 kts 220°
2026-04-23 16:03 55.56075 12.85429 10777 ft 346 kts 231°
2026-04-23 16:03 55.54382 12.82292 11236 ft 357 kts 233°
2026-04-23 16:03 55.52909 12.78781 11876 ft 356 kts 245°
2026-04-23 16:04 55.51880 12.74839 12541 ft 353 kts 257°
2026-04-23 16:04 55.51341 12.70633 13215 ft 351 kts 269°
2026-04-23 16:04 55.51173 12.66336 13895 ft 353 kts 272°
2026-04-23 16:04 55.51017 12.61981 14509 ft 357 kts 271°
2026-04-23 16:05 55.50909 12.59083 14919 ft 359 kts 271°
2026-04-23 16:05 55.50682 12.53179 15761 ft 362 kts 271°
2026-04-23 16:05 55.50509 12.48732 16379 ft 365 kts 271°
2026-04-23 16:05 55.50332 12.44255 17000 ft 367 kts 270°
2026-04-23 16:06 55.50153 12.39801 17618 ft 370 kts 270°
2026-04-23 16:06 55.49972 12.35254 18261 ft 373 kts 270°
2026-04-23 16:06 55.49790 12.30678 18833 ft 376 kts 269°
2026-04-23 16:06 55.49319 12.26095 19359 ft 385 kts 257°
2026-04-23 16:07 55.48306 12.21677 19925 ft 394 kts 246°
2026-04-23 16:07 55.46782 12.17610 20508 ft 401 kts 237°
2026-04-23 16:07 55.45088 12.13674 21080 ft 404 kts 237°
2026-04-23 16:07 55.43387 12.09713 21630 ft 407 kts 237°
2026-04-23 16:08 55.41674 12.05714 22160 ft 410 kts 237°
2026-04-23 16:08 55.39946 12.01680 22687 ft 413 kts 237°
2026-04-23 16:08 55.38208 11.97623 23191 ft 416 kts 237°
2026-04-23 16:08 55.36462 11.93551 23688 ft 419 kts 237°
2026-04-23 16:09 55.34721 11.89504 24100 ft 422 kts 237°
2026-04-23 16:09 55.32941 11.85377 24501 ft 425 kts 237°
2026-04-23 16:09 55.31148 11.81235 24898 ft 427 kts 237°
2026-04-23 16:09 55.29341 11.77069 25292 ft 430 kts 237°
2026-04-23 16:10 55.27519 11.72875 25677 ft 433 kts 237°
2026-04-23 16:10 55.25688 11.68663 26053 ft 435 kts 237°
2026-04-23 16:10 55.23903 11.64370 26420 ft 436 kts 239°
2026-04-23 16:10 55.22210 11.59949 26780 ft 437 kts 240°
2026-04-23 16:11 55.20575 11.55443 27157 ft 439 kts 241°
2026-04-23 16:11 55.18957 11.50890 27521 ft 442 kts 241°
2026-04-23 16:11 55.17328 11.46308 27889 ft 444 kts 241°
2026-04-23 16:11 55.15671 11.41717 28242 ft 447 kts 240°
2026-04-23 16:12 55.13985 11.37129 28590 ft 450 kts 240°
2026-04-23 16:12 55.12273 11.32540 28935 ft 452 kts 240°
2026-04-23 16:12 55.10537 11.27923 29276 ft 455 kts 239°
2026-04-23 16:12 55.08807 11.23334 29607 ft 457 kts 239°
2026-04-23 16:13 55.07062 11.18703 29932 ft 460 kts 239°
2026-04-23 16:13 55.03549 11.09375 30717 ft 459 kts 239°
2026-04-23 16:13 55.01796 11.04731 31130 ft 458 kts 239°
2026-04-23 16:14 55.00040 11.00089 31503 ft 459 kts 239°
2026-04-23 16:14 54.98286 10.95458 31893 ft 458 kts 239°
2026-04-23 16:14 54.96532 10.90842 32374 ft 455 kts 239°
2026-04-23 16:14 54.94977 10.86086 32826 ft 450 kts 248°
2026-04-23 16:15 54.93865 10.81016 33270 ft 446 kts 256°
2026-04-23 16:15 54.93084 10.75820 33717 ft 444 kts 258°
2026-04-23 16:15 54.92316 10.70640 34166 ft 442 kts 258°
2026-04-23 16:15 54.91545 10.65461 34558 ft 441 kts 258°
2026-04-23 16:16 54.90770 10.60311 34924 ft 440 kts 258°
2026-04-23 16:16 54.89991 10.55181 35279 ft 439 kts 257°
2026-04-23 16:16 54.89208 10.50052 35624 ft 438 kts 257°
2026-04-23 16:16 54.88427 10.44939 35966 ft 438 kts 257°
2026-04-23 16:17 54.87648 10.39839 36294 ft 437 kts 257°
2026-04-23 16:17 54.86867 10.34748 36609 ft 436 kts 257°
2026-04-23 16:17 54.86082 10.29660 36927 ft 435 kts 257°
2026-04-23 16:17 54.85296 10.24590 37234 ft 435 kts 257°
2026-04-23 16:18 54.84509 10.19530 37526 ft 434 kts 257°
2026-04-23 16:18 54.83723 10.14477 37817 ft 434 kts 257°
2026-04-23 16:18 54.82935 10.09424 38078 ft 434 kts 257°
2026-04-23 16:18 54.82145 10.04371 38199 ft 435 kts 257°
2026-04-23 16:19 54.80146 9.94418 38220 ft 440 kts 244°
2026-04-23 16:19 54.76934 9.85443 38221 ft 442 kts 239°
2026-04-23 16:20 54.73615 9.76396 38208 ft 442 kts 239°
2026-04-23 16:20 54.70343 9.67476 38231 ft 442 kts 239°
2026-04-23 16:21 54.67032 9.58513 38239 ft 442 kts 238°
2026-04-23 16:21 54.63715 9.49559 38257 ft 442 kts 238°
2026-04-23 16:22 54.60390 9.40614 38247 ft 443 kts 239°
2026-04-23 16:22 54.57053 9.31678 38256 ft 444 kts 239°
2026-04-23 16:23 54.53704 9.22736 38267 ft 444 kts 238°
2026-04-23 16:23 54.50343 9.13823 38265 ft 444 kts 238°
2026-04-23 16:24 54.46981 9.04935 38282 ft 443 kts 238°
2026-04-23 16:24 54.43618 8.96055 38294 ft 443 kts 238°
2026-04-23 16:25 54.40255 8.87193 38299 ft 443 kts 237°
2026-04-23 16:25 54.36876 8.78345 38299 ft 444 kts 237°
2026-04-23 16:26 54.33491 8.69497 38315 ft 444 kts 237°
2026-04-23 16:26 54.30101 8.60672 38313 ft 444 kts 237°
2026-04-23 16:27 54.26699 8.51856 38318 ft 444 kts 237°
2026-04-23 16:27 54.23319 8.43124 38334 ft 442 kts 236°
2026-04-23 16:28 54.19921 8.34364 38333 ft 442 kts 236°
2026-04-23 16:28 54.16522 8.25633 38347 ft 441 kts 236°
2026-04-23 16:29 54.13110 8.16921 38351 ft 441 kts 236°